Year,Month,Day,Hour,Minute,Value (Times are PST for barometer in hPa)
2020,11,17,00,00,999.09
2020,11,17,00,01,998.95
2020,11,17,00,02,998.88
2020,11,17,00,03,998.89
2020,11,17,00,04,999.05
2020,11,17,00,05,999.03
2020,11,17,00,06,998.75
2020,11,17,00,07,998.73
2020,11,17,00,08,998.96
2020,11,17,00,09,999.11
2020,11,17,00,10,998.97
2020,11,17,00,11,998.77
2020,11,17,00,12,998.69
2020,11,17,00,13,998.80
2020,11,17,00,14,999.02
2020,11,17,00,15,998.95
2020,11,17,00,16,998.89
2020,11,17,00,17,999.01
2020,11,17,00,18,998.87
2020,11,17,00,19,998.78
2020,11,17,00,20,998.71
2020,11,17,00,21,998.67
2020,11,17,00,22,998.58
2020,11,17,00,23,998.55
2020,11,17,00,24,998.68
2020,11,17,00,25,998.74
2020,11,17,00,26,998.60
2020,11,17,00,27,998.54
2020,11,17,00,28,998.57
2020,11,17,00,29,998.41
2020,11,17,00,30,998.34
2020,11,17,00,31,998.38
2020,11,17,00,32,998.34
2020,11,17,00,33,998.34
2020,11,17,00,34,998.34
2020,11,17,00,35,998.33
2020,11,17,00,36,998.14
2020,11,17,00,37,998.15
2020,11,17,00,38,998.31
2020,11,17,00,39,998.34
2020,11,17,00,40,998.27
2020,11,17,00,41,998.24
2020,11,17,00,42,998.21
2020,11,17,00,43,998.24
2020,11,17,00,44,998.23
2020,11,17,00,45,998.09
2020,11,17,00,46,997.94
2020,11,17,00,47,997.90
2020,11,17,00,48,997.83
2020,11,17,00,49,997.88
2020,11,17,00,50,997.97
2020,11,17,00,51,997.99
2020,11,17,00,52,997.86
2020,11,17,00,53,997.72
2020,11,17,00,54,997.67
2020,11,17,00,55,997.76
2020,11,17,00,56,997.67
2020,11,17,00,57,997.77
2020,11,17,00,58,997.79
2020,11,17,00,59,997.58
2020,11,17,01,00,997.37
2020,11,17,01,01,997.50
2020,11,17,01,02,997.56
2020,11,17,01,03,997.49
2020,11,17,01,04,997.39
2020,11,17,01,05,997.37
2020,11,17,01,06,997.45
2020,11,17,01,07,997.29
2020,11,17,01,08,997.33
2020,11,17,01,09,997.32
2020,11,17,01,10,997.22
2020,11,17,01,11,997.20
2020,11,17,01,12,997.32
2020,11,17,01,13,997.19
2020,11,17,01,14,997.16
2020,11,17,01,15,997.18
2020,11,17,01,16,997.09
2020,11,17,01,17,996.94
2020,11,17,01,18,996.85
2020,11,17,01,19,996.89
2020,11,17,01,20,996.77
2020,11,17,01,21,996.67
2020,11,17,01,22,996.58
2020,11,17,01,23,996.60
2020,11,17,01,24,996.48
2020,11,17,01,25,996.51
2020,11,17,01,26,996.51
2020,11,17,01,27,996.49
2020,11,17,01,28,996.65
2020,11,17,01,29,996.64
2020,11,17,01,30,996.50
2020,11,17,01,31,996.38
2020,11,17,01,32,996.34
2020,11,17,01,33,996.38
2020,11,17,01,34,996.38
2020,11,17,01,35,996.31
2020,11,17,01,36,996.28
2020,11,17,01,37,996.34
2020,11,17,01,38,996.26
2020,11,17,01,39,996.03
2020,11,17,01,40,995.94
2020,11,17,01,41,995.97
2020,11,17,01,42,996.04
2020,11,17,01,43,996.04
2020,11,17,01,44,996.04
2020,11,17,01,45,996.07
2020,11,17,01,46,996.01
2020,11,17,01,47,996.00
2020,11,17,01,48,995.87
2020,11,17,01,49,995.80
2020,11,17,01,50,995.86
2020,11,17,01,51,995.77
2020,11,17,01,52,995.78
2020,11,17,01,53,995.83
2020,11,17,01,54,995.70
2020,11,17,01,55,995.70
2020,11,17,01,56,995.73
2020,11,17,01,57,995.73
2020,11,17,01,58,995.72
2020,11,17,01,59,995.53
2020,11,17,02,00,995.46
2020,11,17,02,01,995.40
2020,11,17,02,02,995.36
2020,11,17,02,03,995.39
2020,11,17,02,04,995.22
2020,11,17,02,05,995.12
2020,11,17,02,06,995.17
2020,11,17,02,07,995.29
2020,11,17,02,08,995.40
2020,11,17,02,09,995.32
2020,11,17,02,10,995.12
2020,11,17,02,11,995.16
2020,11,17,02,12,995.09
2020,11,17,02,13,995.05
2020,11,17,02,14,994.98
2020,11,17,02,15,994.84
2020,11,17,02,16,994.69
2020,11,17,02,17,994.79
2020,11,17,02,18,994.88
2020,11,17,02,19,994.75
2020,11,17,02,20,994.78
2020,11,17,02,21,994.58
2020,11,17,02,22,994.62
2020,11,17,02,23,994.55
2020,11,17,02,24,994.62
2020,11,17,02,25,994.65
2020,11,17,02,26,994.58
2020,11,17,02,27,994.56
2020,11,17,02,28,994.35
2020,11,17,02,29,994.40
2020,11,17,02,30,994.31
2020,11,17,02,31,994.28
2020,11,17,02,32,994.14
2020,11,17,02,33,994.07
2020,11,17,02,34,994.15
2020,11,17,02,35,994.22
2020,11,17,02,36,993.95
2020,11,17,02,37,994.04
2020,11,17,02,38,994.11
2020,11,17,02,39,994.11
2020,11,17,02,40,994.11
2020,11,17,02,41,994.11
2020,11,17,02,42,994.07
2020,11,17,02,43,994.07
2020,11,17,02,44,994.07
2020,11,17,02,45,994.01
2020,11,17,02,46,993.97
2020,11,17,02,47,993.97
2020,11,17,02,48,993.85
2020,11,17,02,49,993.97
2020,11,17,02,50,993.91
2020,11,17,02,51,993.91
2020,11,17,02,52,993.90
2020,11,17,02,53,993.67
2020,11,17,02,54,993.70
2020,11,17,02,55,993.73
2020,11,17,02,56,993.63
2020,11,17,02,57,993.64
2020,11,17,02,58,993.69
2020,11,17,02,59,993.53
2020,11,17,03,00,993.60
2020,11,17,03,01,993.62
2020,11,17,03,02,993.46
2020,11,17,03,03,993.30
2020,11,17,03,04,993.36
2020,11,17,03,05,993.36
2020,11,17,03,06,993.41
2020,11,17,03,07,993.53
2020,11,17,03,08,993.59
2020,11,17,03,09,993.36
2020,11,17,03,10,993.43
2020,11,17,03,11,993.47
2020,11,17,03,12,993.49
2020,11,17,03,13,993.42
2020,11,17,03,14,993.26
2020,11,17,03,15,993.33
2020,11,17,03,16,993.29
2020,11,17,03,17,993.19
2020,11,17,03,18,993.17
2020,11,17,03,19,993.30
2020,11,17,03,20,993.19
2020,11,17,03,21,993.12
2020,11,17,03,22,992.97
2020,11,17,03,23,993.13
2020,11,17,03,24,993.12
2020,11,17,03,25,992.99
2020,11,17,03,26,993.03
2020,11,17,03,27,993.05
2020,11,17,03,28,992.89
2020,11,17,03,29,992.95
2020,11,17,03,30,992.85
2020,11,17,03,31,992.79
2020,11,17,03,32,992.82
2020,11,17,03,33,992.75
2020,11,17,03,34,992.69
2020,11,17,03,35,992.66
2020,11,17,03,36,992.82
2020,11,17,03,37,992.82
2020,11,17,03,38,992.75
2020,11,17,03,39,992.81
2020,11,17,03,40,992.69
2020,11,17,03,41,992.69
2020,11,17,03,42,992.78
2020,11,17,03,43,992.71
2020,11,17,03,44,992.58
2020,11,17,03,45,992.58
2020,11,17,03,46,992.52
2020,11,17,03,47,992.46
2020,11,17,03,48,992.61
2020,11,17,03,49,992.48
2020,11,17,03,50,992.47
2020,11,17,03,51,992.28
2020,11,17,03,52,992.28
2020,11,17,03,53,992.28
2020,11,17,03,54,992.28
2020,11,17,03,55,992.21
2020,11,17,03,56,992.21
2020,11,17,03,57,992.24
2020,11,17,03,58,992.18
2020,11,17,03,59,992.14
2020,11,17,04,00,992.18
2020,11,17,04,01,992.24
2020,11,17,04,02,992.14
2020,11,17,04,03,992.04
2020,11,17,04,04,992.11
2020,11,17,04,05,992.11
2020,11,17,04,06,992.17
2020,11,17,04,07,992.11
2020,11,17,04,08,992.11
2020,11,17,04,09,992.04
2020,11,17,04,10,992.05
2020,11,17,04,11,992.14
2020,11,17,04,12,992.08
2020,11,17,04,13,991.98
2020,11,17,04,14,992.03
2020,11,17,04,15,991.92
2020,11,17,04,16,992.01
2020,11,17,04,17,991.94
2020,11,17,04,18,991.84
2020,11,17,04,19,991.87
2020,11,17,04,20,991.83
2020,11,17,04,21,991.64
2020,11,17,04,22,991.56
2020,11,17,04,23,991.44
2020,11,17,04,24,991.64
2020,11,17,04,25,991.67
2020,11,17,04,26,991.60
2020,11,17,04,27,991.60
2020,11,17,04,28,991.49
2020,11,17,04,29,991.37
2020,11,17,04,30,991.37
2020,11,17,04,31,991.47
2020,11,17,04,32,991.35
2020,11,17,04,33,991.09
2020,11,17,04,34,991.12
2020,11,17,04,35,991.06
2020,11,17,04,36,991.16
2020,11,17,04,37,991.02
2020,11,17,04,38,990.92
2020,11,17,04,39,990.79
2020,11,17,04,40,990.69
2020,11,17,04,41,990.80
2020,11,17,04,42,990.92
2020,11,17,04,43,990.82
2020,11,17,04,44,990.79
2020,11,17,04,45,990.82
2020,11,17,04,46,990.78
2020,11,17,04,47,990.65
2020,11,17,04,48,990.62
2020,11,17,04,49,990.75
2020,11,17,04,50,990.52
2020,11,17,04,51,990.45
2020,11,17,04,52,990.46
2020,11,17,04,53,990.65
2020,11,17,04,54,990.55
2020,11,17,04,55,990.52
2020,11,17,04,56,990.55
2020,11,17,04,57,990.45
2020,11,17,04,58,990.43
2020,11,17,04,59,990.55
2020,11,17,05,00,990.52
2020,11,17,05,01,990.55
2020,11,17,05,02,990.51
2020,11,17,05,03,990.35
2020,11,17,05,04,990.32
2020,11,17,05,05,990.18
2020,11,17,05,06,990.21
2020,11,17,05,07,990.21
2020,11,17,05,08,990.17
2020,11,17,05,09,989.92
2020,11,17,05,10,990.15
2020,11,17,05,11,990.18
2020,11,17,05,12,990.14
2020,11,17,05,13,989.94
2020,11,17,05,14,989.88
2020,11,17,05,15,989.84
2020,11,17,05,16,989.98
2020,11,17,05,17,989.88
2020,11,17,05,18,989.81
2020,11,17,05,19,989.77
2020,11,17,05,20,989.74
2020,11,17,05,21,989.81
2020,11,17,05,22,989.81
2020,11,17,05,23,989.71
2020,11,17,05,24,989.67
2020,11,17,05,25,989.64
2020,11,17,05,26,989.57
2020,11,17,05,27,989.59
2020,11,17,05,28,989.50
2020,11,17,05,29,989.59
2020,11,17,05,30,989.44
2020,11,17,05,31,989.49
2020,11,17,05,32,989.40
2020,11,17,05,33,989.37
2020,11,17,05,34,989.32
2020,11,17,05,35,989.16
2020,11,17,05,36,989.06
2020,11,17,05,37,989.03
2020,11,17,05,38,989.03
2020,11,17,05,39,989.06
2020,11,17,05,40,988.95
2020,11,17,05,41,988.83
2020,11,17,05,42,988.79
2020,11,17,05,43,988.80
2020,11,17,05,44,988.92
2020,11,17,05,45,988.83
2020,11,17,05,46,988.86
2020,11,17,05,47,988.79
2020,11,17,05,48,988.82
2020,11,17,05,49,988.62
2020,11,17,05,50,988.73
2020,11,17,05,51,988.96
2020,11,17,05,52,988.92
2020,11,17,05,53,988.76
2020,11,17,05,54,988.76
2020,11,17,05,55,988.69
2020,11,17,05,56,988.61
2020,11,17,05,57,988.53
2020,11,17,05,58,988.72
2020,11,17,05,59,988.61
2020,11,17,06,00,988.45
2020,11,17,06,01,988.44
2020,11,17,06,02,988.35
2020,11,17,06,03,988.32
2020,11,17,06,04,988.22
2020,11,17,06,05,988.23
2020,11,17,06,06,987.98
2020,11,17,06,07,987.95
2020,11,17,06,08,987.84
2020,11,17,06,09,987.84
2020,11,17,06,10,987.88
2020,11,17,06,11,987.84
2020,11,17,06,12,987.84
2020,11,17,06,13,987.93
2020,11,17,06,14,987.71
2020,11,17,06,15,987.68
2020,11,17,06,16,987.79
2020,11,17,06,17,987.93
2020,11,17,06,18,987.66
2020,11,17,06,19,987.47
2020,11,17,06,20,987.33
2020,11,17,06,21,987.12
2020,11,17,06,22,987.03
2020,11,17,06,23,987.00
2020,11,17,06,24,986.96
2020,11,17,06,25,986.91
2020,11,17,06,26,986.65
2020,11,17,06,27,986.52
2020,11,17,06,28,986.53
2020,11,17,06,29,986.76
2020,11,17,06,30,986.77
2020,11,17,06,31,986.55
2020,11,17,06,32,986.31
2020,11,17,06,33,986.11
2020,11,17,06,34,985.91
2020,11,17,06,35,985.85
2020,11,17,06,36,985.81
2020,11,17,06,37,985.78
2020,11,17,06,38,985.76
2020,11,17,06,39,985.47
2020,11,17,06,40,985.55
2020,11,17,06,41,985.28
2020,11,17,06,42,985.52
2020,11,17,06,43,985.09
2020,11,17,06,44,984.90
2020,11,17,06,45,984.90
2020,11,17,06,46,984.76
2020,11,17,06,47,984.74
2020,11,17,06,48,984.90
2020,11,17,06,49,984.94
2020,11,17,06,50,985.14
2020,11,17,06,51,985.35
2020,11,17,06,52,985.44
2020,11,17,06,53,985.51
2020,11,17,06,54,985.58
2020,11,17,06,55,985.64
2020,11,17,06,56,985.60
2020,11,17,06,57,985.34
2020,11,17,06,58,985.40
2020,11,17,06,59,985.74
2020,11,17,07,00,985.80
2020,11,17,07,01,985.47
2020,11,17,07,02,985.42
2020,11,17,07,03,985.60
2020,11,17,07,04,985.54
2020,11,17,07,05,985.57
2020,11,17,07,06,985.54
2020,11,17,07,07,985.55
2020,11,17,07,08,985.74
2020,11,17,07,09,985.71
2020,11,17,07,10,985.61
2020,11,17,07,11,985.54
2020,11,17,07,12,985.51
2020,11,17,07,13,985.47
2020,11,17,07,14,985.37
2020,11,17,07,15,985.34
2020,11,17,07,16,985.34
2020,11,17,07,17,985.36
2020,11,17,07,18,985.22
2020,11,17,07,19,985.03
2020,11,17,07,20,985.03
2020,11,17,07,21,984.96
2020,11,17,07,22,984.77
2020,11,17,07,23,984.93
2020,11,17,07,24,984.86
2020,11,17,07,25,984.84
2020,11,17,07,26,984.90
2020,11,17,07,27,984.76
2020,11,17,07,28,984.85
2020,11,17,07,29,984.77
2020,11,17,07,30,984.83
2020,11,17,07,31,984.76
2020,11,17,07,32,984.68
2020,11,17,07,33,984.59
2020,11,17,07,34,984.56
2020,11,17,07,35,984.66
2020,11,17,07,36,984.66
2020,11,17,07,37,984.74
2020,11,17,07,38,984.83
2020,11,17,07,39,984.86
2020,11,17,07,40,984.93
2020,11,17,07,41,984.89
2020,11,17,07,42,984.73
2020,11,17,07,43,984.76
2020,11,17,07,44,984.80
2020,11,17,07,45,984.85
2020,11,17,07,46,984.69
2020,11,17,07,47,984.66
2020,11,17,07,48,984.53
2020,11,17,07,49,984.63
2020,11,17,07,50,984.66
2020,11,17,07,51,984.72
2020,11,17,07,52,984.57
2020,11,17,07,53,984.62
2020,11,17,07,54,984.55
2020,11,17,07,55,984.42
2020,11,17,07,56,984.41
2020,11,17,07,57,984.22
2020,11,17,07,58,984.25
2020,11,17,07,59,984.22
2020,11,17,08,00,984.31
2020,11,17,08,01,984.15
2020,11,17,08,02,984.19
2020,11,17,08,03,984.19
2020,11,17,08,04,984.21
2020,11,17,08,05,984.02
2020,11,17,08,06,983.98
2020,11,17,08,07,984.08
2020,11,17,08,08,983.95
2020,11,17,08,09,983.95
2020,11,17,08,10,983.95
2020,11,17,08,11,983.96
2020,11,17,08,12,984.12
2020,11,17,08,13,984.05
2020,11,17,08,14,984.05
2020,11,17,08,15,983.98
2020,11,17,08,16,984.05
2020,11,17,08,17,983.98
2020,11,17,08,18,984.01
2020,11,17,08,19,983.89
2020,11,17,08,20,984.01
2020,11,17,08,21,983.88
2020,11,17,08,22,983.92
2020,11,17,08,23,983.88
2020,11,17,08,24,983.88
2020,11,17,08,25,983.75
2020,11,17,08,26,983.81
2020,11,17,08,27,983.88
2020,11,17,08,28,983.85
2020,11,17,08,29,983.87
2020,11,17,08,30,983.64
2020,11,17,08,31,983.68
2020,11,17,08,32,983.58
2020,11,17,08,33,983.61
2020,11,17,08,34,983.68
2020,11,17,08,35,983.71
2020,11,17,08,36,983.70
2020,11,17,08,37,983.51
2020,11,17,08,38,983.55
2020,11,17,08,39,983.70
2020,11,17,08,40,983.60
2020,11,17,08,41,983.48
2020,11,17,08,42,983.37
2020,11,17,08,43,983.41
2020,11,17,08,44,983.40
2020,11,17,08,45,983.31
2020,11,17,08,46,983.34
2020,11,17,08,47,983.25
2020,11,17,08,48,983.47
2020,11,17,08,49,983.32
2020,11,17,08,50,983.41
2020,11,17,08,51,983.26
2020,11,17,08,52,983.03
2020,11,17,08,53,982.91
2020,11,17,08,54,983.00
2020,11,17,08,55,982.93
2020,11,17,08,56,982.86
2020,11,17,08,57,982.77
2020,11,17,08,58,982.99
2020,11,17,08,59,982.73
2020,11,17,09,00,982.80
2020,11,17,09,01,982.80
2020,11,17,09,02,982.80
2020,11,17,09,03,982.72
2020,11,17,09,04,982.59
2020,11,17,09,05,982.66
2020,11,17,09,06,982.62
2020,11,17,09,07,982.49
2020,11,17,09,08,982.60
2020,11,17,09,09,982.71
2020,11,17,09,10,982.90
2020,11,17,09,11,982.80
2020,11,17,09,12,982.77
2020,11,17,09,13,982.42
2020,11,17,09,14,982.29
2020,11,17,09,15,982.23
2020,11,17,09,16,982.36
2020,11,17,09,17,982.42
2020,11,17,09,18,982.30
2020,11,17,09,19,982.48
2020,11,17,09,20,982.26
2020,11,17,09,21,982.32
2020,11,17,09,22,982.30
2020,11,17,09,23,982.69
2020,11,17,09,24,982.39
2020,11,17,09,25,982.36
2020,11,17,09,26,982.35
2020,11,17,09,27,982.26
2020,11,17,09,28,982.22
2020,11,17,09,29,982.23
2020,11,17,09,30,982.43
2020,11,17,09,31,982.46
2020,11,17,09,32,982.45
2020,11,17,09,33,982.29
2020,11,17,09,34,982.31
2020,11,17,09,35,982.03
2020,11,17,09,36,982.29
2020,11,17,09,37,982.33
2020,11,17,09,38,982.42
2020,11,17,09,39,982.20
2020,11,17,09,40,982.49
2020,11,17,09,41,982.44
2020,11,17,09,42,982.02
2020,11,17,09,43,982.09
2020,11,17,09,44,982.01
2020,11,17,09,45,981.90
2020,11,17,09,46,982.32
2020,11,17,09,47,982.42
2020,11,17,09,48,982.29
2020,11,17,09,49,982.68
2020,11,17,09,50,982.36
2020,11,17,09,51,982.44
2020,11,17,09,52,982.59
2020,11,17,09,53,982.46
2020,11,17,09,54,982.48
2020,11,17,09,55,982.31
2020,11,17,09,56,982.11
2020,11,17,09,57,982.60
2020,11,17,09,58,982.77
2020,11,17,09,59,982.90
2020,11,17,10,00,982.91
2020,11,17,10,01,983.27
2020,11,17,10,02,983.33
2020,11,17,10,03,983.17
2020,11,17,10,04,983.07
2020,11,17,10,05,983.06
2020,11,17,10,06,982.85
2020,11,17,10,07,983.14
2020,11,17,10,08,983.17
2020,11,17,10,09,983.31
2020,11,17,10,10,983.41
2020,11,17,10,11,983.37
2020,11,17,10,12,983.36
2020,11,17,10,13,983.18
2020,11,17,10,14,983.36
2020,11,17,10,15,983.18
2020,11,17,10,16,983.31
2020,11,17,10,17,983.41
2020,11,17,10,18,983.51
2020,11,17,10,19,983.37
2020,11,17,10,20,983.41
2020,11,17,10,21,983.49
2020,11,17,10,22,983.61
2020,11,17,10,23,983.70
2020,11,17,10,24,983.45
2020,11,17,10,25,983.77
2020,11,17,10,26,983.59
2020,11,17,10,27,983.35
2020,11,17,10,28,983.59
2020,11,17,10,29,983.81
2020,11,17,10,30,983.85
2020,11,17,10,31,983.88
2020,11,17,10,32,983.82
2020,11,17,10,33,984.07
2020,11,17,10,34,983.98
2020,11,17,10,35,984.12
2020,11,17,10,36,984.26
2020,11,17,10,37,984.42
2020,11,17,10,38,984.42
2020,11,17,10,39,984.39
2020,11,17,10,40,984.29
2020,11,17,10,41,984.39
2020,11,17,10,42,984.32
2020,11,17,10,43,984.37
2020,11,17,10,44,984.56
2020,11,17,10,45,984.53
2020,11,17,10,46,984.49
2020,11,17,10,47,984.62
2020,11,17,10,48,984.40
2020,11,17,10,49,984.66
2020,11,17,10,50,984.68
2020,11,17,10,51,984.56
2020,11,17,10,52,984.59
2020,11,17,10,53,984.63
2020,11,17,10,54,984.58
2020,11,17,10,55,984.30
2020,11,17,10,56,984.50
2020,11,17,10,57,984.76
2020,11,17,10,58,984.83
2020,11,17,10,59,984.76
2020,11,17,11,00,984.79
2020,11,17,11,01,984.66
2020,11,17,11,02,984.64
2020,11,17,11,03,984.23
2020,11,17,11,04,984.56
2020,11,17,11,05,984.57
2020,11,17,11,06,984.33
2020,11,17,11,07,984.63
2020,11,17,11,08,984.53
2020,11,17,11,09,984.50
2020,11,17,11,10,984.69
2020,11,17,11,11,984.61
2020,11,17,11,12,984.34
2020,11,17,11,13,984.56
2020,11,17,11,14,984.46
2020,11,17,11,15,984.48
2020,11,17,11,16,984.31
2020,11,17,11,17,984.16
2020,11,17,11,18,984.42
2020,11,17,11,19,984.35
2020,11,17,11,20,984.19
2020,11,17,11,21,984.25
2020,11,17,11,22,984.25
2020,11,17,11,23,984.25
2020,11,17,11,24,984.23
2020,11,17,11,25,984.32
2020,11,17,11,26,984.36
2020,11,17,11,27,984.36
2020,11,17,11,28,984.42
2020,11,17,11,29,984.42
2020,11,17,11,30,984.42
2020,11,17,11,31,984.37
2020,11,17,11,32,984.65
2020,11,17,11,33,984.84
2020,11,17,11,34,984.42
2020,11,17,11,35,984.86
2020,11,17,11,36,984.80
2020,11,17,11,37,984.86
2020,11,17,11,38,984.94
2020,11,17,11,39,985.03
2020,11,17,11,40,985.03
2020,11,17,11,41,985.00
2020,11,17,11,42,985.03
2020,11,17,11,43,985.10
2020,11,17,11,44,985.24
2020,11,17,11,45,985.24
2020,11,17,11,46,985.31
2020,11,17,11,47,985.61
2020,11,17,11,48,985.60
2020,11,17,11,49,985.47
2020,11,17,11,50,985.61
2020,11,17,11,51,985.64
2020,11,17,11,52,985.61
2020,11,17,11,53,985.64
2020,11,17,11,54,985.61
2020,11,17,11,55,985.61
2020,11,17,11,56,985.68
2020,11,17,11,57,985.71
2020,11,17,11,58,985.74
2020,11,17,11,59,985.78
2020,11,17,12,00,985.78
2020,11,17,12,01,985.89
2020,11,17,12,02,985.98
2020,11,17,12,03,986.05
2020,11,17,12,04,986.12
2020,11,17,12,05,986.12
2020,11,17,12,06,986.15
2020,11,17,12,07,986.08
2020,11,17,12,08,986.18
2020,11,17,12,09,986.12
2020,11,17,12,10,986.18
2020,11,17,12,11,986.18
2020,11,17,12,12,986.22
2020,11,17,12,13,986.29
2020,11,17,12,14,986.35
2020,11,17,12,15,986.29
2020,11,17,12,16,986.35
2020,11,17,12,17,986.42
2020,11,17,12,18,986.46
2020,11,17,12,19,986.50
2020,11,17,12,20,986.66
2020,11,17,12,21,986.62
2020,11,17,12,22,986.69
2020,11,17,12,23,986.76
2020,11,17,12,24,986.77
2020,11,17,12,25,986.90
2020,11,17,12,26,986.90
2020,11,17,12,27,986.97
2020,11,17,12,28,987.13
2020,11,17,12,29,987.13
2020,11,17,12,30,987.20
2020,11,17,12,31,987.23
2020,11,17,12,32,987.27
2020,11,17,12,33,987.34
2020,11,17,12,34,987.34
2020,11,17,12,35,987.40
2020,11,17,12,36,987.47
2020,11,17,12,37,987.44
2020,11,17,12,38,987.47
2020,11,17,12,39,987.54
2020,11,17,12,40,987.56
2020,11,17,12,41,987.47
2020,11,17,12,42,987.51
2020,11,17,12,43,987.57
2020,11,17,12,44,987.52
2020,11,17,12,45,987.60
2020,11,17,12,46,987.54
2020,11,17,12,47,987.67
2020,11,17,12,48,987.57
2020,11,17,12,49,987.65
2020,11,17,12,50,987.71
2020,11,17,12,51,987.73
2020,11,17,12,52,987.58
2020,11,17,12,53,987.64
2020,11,17,12,54,987.64
2020,11,17,12,55,987.71
2020,11,17,12,56,987.67
2020,11,17,12,57,987.71
2020,11,17,12,58,987.74
2020,11,17,12,59,987.78
2020,11,17,13,00,987.74
2020,11,17,13,01,987.84
2020,11,17,13,02,987.89
2020,11,17,13,03,988.01
2020,11,17,13,04,988.05
2020,11,17,13,05,988.08
2020,11,17,13,06,988.01
2020,11,17,13,07,988.08
2020,11,17,13,08,988.05
2020,11,17,13,09,988.01
2020,11,17,13,10,988.05
2020,11,17,13,11,988.08
2020,11,17,13,12,988.16
2020,11,17,13,13,988.22
2020,11,17,13,14,988.28
2020,11,17,13,15,988.35
2020,11,17,13,16,988.35
2020,11,17,13,17,988.42
2020,11,17,13,18,988.45
2020,11,17,13,19,988.49
2020,11,17,13,20,988.45
2020,11,17,13,21,988.45
2020,11,17,13,22,988.49
2020,11,17,13,23,988.49
2020,11,17,13,24,988.49
2020,11,17,13,25,988.52
2020,11,17,13,26,988.52
2020,11,17,13,27,988.52
2020,11,17,13,28,988.52
2020,11,17,13,29,988.55
2020,11,17,13,30,988.59
2020,11,17,13,31,988.59
2020,11,17,13,32,988.62
2020,11,17,13,33,988.56
2020,11,17,13,34,988.72
2020,11,17,13,35,988.76
2020,11,17,13,36,988.79
2020,11,17,13,37,988.86
2020,11,17,13,38,988.93
2020,11,17,13,39,988.89
2020,11,17,13,40,988.89
2020,11,17,13,41,989.00
2020,11,17,13,42,988.93
2020,11,17,13,43,988.96
2020,11,17,13,44,989.00
2020,11,17,13,45,989.03
2020,11,17,13,46,989.03
2020,11,17,13,47,989.03
2020,11,17,13,48,989.03
2020,11,17,13,49,989.03
2020,11,17,13,50,989.06
2020,11,17,13,51,989.13
2020,11,17,13,52,989.13
2020,11,17,13,53,989.13
2020,11,17,13,54,989.13
2020,11,17,13,55,989.13
2020,11,17,13,56,989.10
2020,11,17,13,57,989.06
2020,11,17,13,58,989.10
2020,11,17,13,59,989.14
2020,11,17,14,00,989.23
2020,11,17,14,01,989.14
2020,11,17,14,02,989.27
2020,11,17,14,03,989.20
2020,11,17,14,04,989.13
2020,11,17,14,05,989.20
2020,11,17,14,06,989.20
2020,11,17,14,07,989.27
2020,11,17,14,08,989.14
2020,11,17,14,09,989.27
2020,11,17,14,10,989.33
2020,11,17,14,11,989.30
2020,11,17,14,12,989.20
2020,11,17,14,13,989.23
2020,11,17,14,14,989.23
2020,11,17,14,15,989.30
2020,11,17,14,16,989.27
2020,11,17,14,17,989.33
2020,11,17,14,18,989.30
2020,11,17,14,19,989.30
2020,11,17,14,20,989.30
2020,11,17,14,21,989.27
2020,11,17,14,22,989.27
2020,11,17,14,23,989.33
2020,11,17,14,24,989.30
2020,11,17,14,25,989.30
2020,11,17,14,26,989.33
2020,11,17,14,27,989.33
2020,11,17,14,28,989.37
2020,11,17,14,29,989.40
2020,11,17,14,30,989.37
2020,11,17,14,31,989.40
2020,11,17,14,32,989.47
2020,11,17,14,33,989.47
2020,11,17,14,34,989.50
2020,11,17,14,35,989.50
2020,11,17,14,36,989.44
2020,11,17,14,37,989.50
2020,11,17,14,38,989.57
2020,11,17,14,39,989.57
2020,11,17,14,40,989.64
2020,11,17,14,41,989.74
2020,11,17,14,42,989.64
2020,11,17,14,43,989.71
2020,11,17,14,44,989.74
2020,11,17,14,45,989.74
2020,11,17,14,46,989.77
2020,11,17,14,47,989.84
2020,11,17,14,48,989.88
2020,11,17,14,49,989.91
2020,11,17,14,50,989.88
2020,11,17,14,51,989.91
2020,11,17,14,52,989.91
2020,11,17,14,53,989.88
2020,11,17,14,54,989.88
2020,11,17,14,55,989.81
2020,11,17,14,56,989.84
2020,11,17,14,57,989.84
2020,11,17,14,58,989.77
2020,11,17,14,59,989.77
2020,11,17,15,00,989.84
2020,11,17,15,01,989.81
2020,11,17,15,02,989.84
2020,11,17,15,03,989.84
2020,11,17,15,04,989.84
2020,11,17,15,05,989.88
2020,11,17,15,06,989.94
2020,11,17,15,07,989.91
2020,11,17,15,08,989.94
2020,11,17,15,09,989.94
2020,11,17,15,10,989.94
2020,11,17,15,11,989.94
2020,11,17,15,12,989.98
2020,11,17,15,13,989.94
2020,11,17,15,14,990.01
2020,11,17,15,15,989.98
2020,11,17,15,16,989.98
2020,11,17,15,17,989.98
2020,11,17,15,18,989.94
2020,11,17,15,19,989.88
2020,11,17,15,20,989.91
2020,11,17,15,21,990.01
2020,11,17,15,22,990.08
2020,11,17,15,23,990.08
2020,11,17,15,24,990.11
2020,11,17,15,25,990.08
2020,11,17,15,26,990.11
2020,11,17,15,27,990.11
2020,11,17,15,28,990.08
2020,11,17,15,29,990.11
2020,11,17,15,30,990.11
2020,11,17,15,31,990.01
2020,11,17,15,32,990.11
2020,11,17,15,33,990.04
2020,11,17,15,34,990.08
2020,11,17,15,35,990.04
2020,11,17,15,36,990.08
2020,11,17,15,37,990.11
2020,11,17,15,38,990.15
2020,11,17,15,39,990.18
2020,11,17,15,40,990.21
2020,11,17,15,41,990.28
2020,11,17,15,42,990.32
2020,11,17,15,43,990.32
2020,11,17,15,44,990.35
2020,11,17,15,45,990.35
2020,11,17,15,46,990.38
2020,11,17,15,47,990.49
2020,11,17,15,48,990.55
2020,11,17,15,49,990.55
2020,11,17,15,50,990.55
2020,11,17,15,51,990.62
2020,11,17,15,52,990.62
2020,11,17,15,53,990.59
2020,11,17,15,54,990.59
2020,11,17,15,55,990.65
2020,11,17,15,56,990.62
2020,11,17,15,57,990.65
2020,11,17,15,58,990.62
2020,11,17,15,59,990.65
2020,11,17,16,00,990.69
2020,11,17,16,01,990.72
2020,11,17,16,02,990.72
2020,11,17,16,03,990.69
2020,11,17,16,04,990.72
2020,11,17,16,05,990.72
2020,11,17,16,06,990.82
2020,11,17,16,07,990.86
2020,11,17,16,08,990.82
2020,11,17,16,09,990.76
2020,11,17,16,10,990.79
2020,11,17,16,11,990.82
2020,11,17,16,12,990.79
2020,11,17,16,13,990.79
2020,11,17,16,14,990.76
2020,11,17,16,15,990.86
2020,11,17,16,16,990.89
2020,11,17,16,17,990.93
2020,11,17,16,18,990.99
2020,11,17,16,19,990.90
2020,11,17,16,20,990.99
2020,11,17,16,21,990.96
2020,11,17,16,22,990.99
2020,11,17,16,23,990.99
2020,11,17,16,24,991.03
2020,11,17,16,25,991.06
2020,11,17,16,26,991.13
2020,11,17,16,27,991.09
2020,11,17,16,28,991.09
2020,11,17,16,29,991.03
2020,11,17,16,30,991.12
2020,11,17,16,31,991.03
2020,11,17,16,32,991.06
2020,11,17,16,33,990.99
2020,11,17,16,34,991.06
2020,11,17,16,35,991.06
2020,11,17,16,36,991.09